Content
SEND FEEDBACK

Daily
Averages
Monthly
Summary
United States of America

YARMOUTH, MASSACHUSETTS


Home > North America > United States > Massachusetts
Elevation: 52 feet     Latitude: 41 40N     Longitude: 070 16W

WEATHER
 
SELECT A DAY
Number of Records: 207,380;   Date Range: 1/1/95 - 9/16/14
 
SHARE

PRINT THIS DATA

[ ← Previous Day ]
WEATHER ALMANAC - FEBRUARY 6, 2013
[ Next Day → ]
[ °C ]   °F
Weather ElementAverageHighLow
Temperature33.3 °F39 °F (12:56 pm)28 °F (11:56 pm)
Dewpoint25.7 °F32 °F (3:35 am)8.1 °F (11:56 pm)
Humidity76.9 %100 % (1:03 am)41 % (10:56 pm)
Barometer29.99 in30.25 in (11:56 pm)29.88 in (1:03 am)
Wind Speed6 mph15 mph (1:56 pm)
Wind Gust19.6 mph (1:56 pm)
Weather ElementAverage
Visibility8.6 mi
Wind DirectionW (268.5 °)

Weather ElementTotal
Precipitation---
Heating Degree Days31.5 (Base 65)
Averaged from 33 records on February 6, 2013
WEATHER CONDITIONS BREAKOUT
WIND DIRECTION BREAKOUT
WEATHER BY HOUR - FEBRUARY 6, 2013
[ °C ]   °F
Local TimeTemperatureDewpointHumidityBarometerVisibilityWind DirectionWind SpeedGust SpeedPrecipitationEventsConditions
1:03 AM30.2 °F30.2 °F100 %29.88 in9.0 miNNE (30°)3.5 mphOvercast
1:56 AM32.0 °F30.9 °F96 %29.90 in10.0 miNNW (330°)6.9 mphOvercast
2:47 AM32.0 °F30.2 °F93 %29.88 in7.0 miNNW (340°)4.6 mph0.00 inSnowLight Snow
2:56 AM32.0 °F30.9 °F96 %29.90 in7.0 miNNW (330°)4.6 mph0.00 inSnowLight Snow
3:23 AM32.0 °F30.2 °F93 %29.89 in4.0 miNorth (360°)3.5 mph0.00 inSnowLight Snow
3:35 AM32.0 °F32.0 °F100 %29.88 in5.0 miNorth (360°)3.5 mph0.00 inSnowLight Snow
3:56 AM32.0 °F30.9 °F96 %29.89 in5.0 miNNW (340°)3.5 mph0.00 inSnowLight Snow
4:08 AM32.0 °F30.2 °F93 %29.89 in6.0 miCalm0.00 inSnowLight Snow
4:23 AM32.0 °F32.0 °F100 %29.89 in6.0 miNNW (330°)3.5 mph0.00 inOvercast
5:13 AM33.8 °F32.0 °F93 %29.91 in10.0 miNorth (350°)4.6 mphOvercast
5:49 AM33.8 °F32.0 °F93 %29.91 in10.0 miNNW (330°)3.5 mphOvercast
5:56 AM33.1 °F32.0 °F96 %29.92 in10.0 miNNW (330°)3.5 mphOvercast
6:31 AM32.0 °F32.0 °F100 %29.93 in7.0 miNNW (330°)4.6 mphOvercast
6:56 AM32.0 °F30.9 °F96 %29.94 in7.0 miNW (310°)3.5 mphOvercast
7:56 AM32.0 °F32.0 °F100 %29.97 in5.0 miCalmOvercast
8:56 AM33.1 °F32.0 °F96 %29.99 in6.0 miCalmOvercast
9:56 AM34.0 °F30.9 °F89 %29.99 in10.0 miWest (280°)5.8 mphOvercast
10:49 AM33.8 °F28.4 °F81 %29.99 in9.0 miWNW (290°)8.1 mphOvercast
10:56 AM34.0 °F28.9 °F82 %30.00 in10.0 miWNW (290°)10.4 mphOvercast
11:31 AM35.6 °F28.4 °F75 %29.98 in10.0 miWNW (290°)8.1 mphOvercast
11:56 AM36.0 °F28.9 °F76 %29.99 in10.0 miWSW (250°)10.4 mphMostly Cloudy
12:56 PM39.0 °F28.0 °F65 %29.98 in10.0 miWSW (250°)12.7 mphMostly Cloudy
1:56 PM39.0 °F24.1 °F55 %29.98 in10.0 miWSW (250°)15.0 mph19.6 mphPartly Cloudy
2:56 PM39.0 °F21.9 °F50 %30.00 in10.0 miWest (260°)9.2 mphOvercast
3:56 PM37.9 °F19.9 °F48 %30.02 in10.0 miWNW (300°)10.4 mph19.6 mphOvercast
4:56 PM36.0 °F17.1 °F46 %30.05 in10.0 miWest (280°)8.1 mphPartly Cloudy
5:56 PM33.1 °F18.0 °F54 %30.09 in10.0 miWest (270°)3.5 mphClear
6:56 PM33.1 °F17.1 °F52 %30.12 in10.0 miWest (280°)5.8 mphClear
7:56 PM32.0 °F16.0 °F52 %30.15 in10.0 miWest (280°)5.8 mphClear
8:56 PM30.9 °F12.0 °F46 %30.18 in10.0 miNW (310°)8.1 mph16.1 mphClear
9:56 PM30.9 °F10.9 °F43 %30.20 in10.0 miWNW (300°)6.9 mphClear
10:56 PM30.0 °F9.0 °F41 %30.23 in10.0 miNW (310°)9.2 mph17.3 mphClear
11:56 PM28.0 °F8.1 °F43 %30.25 in10.0 miWNW (300°)8.1 mphClear
Hourly data recorded from KHYA, located miles away from Yarmouth, Massachusetts







STORIES FROM OUR PARTNERS